Weather History for KCON - February, 2013

Change the Weather History Date:

Tuesday, February 26, 2013

  Actual Average Record
Temperature  
Mean Temperature 34 °F 27 °F  
Max Temperature 39 °F 38 °F 66 °F (1957)
Min Temperature 28 °F 17 °F -15 °F (1950)
Degree Days  
Heating Degree Days 31 38  
Month to date heating degree days 1052 1063  
Since 1 July heating degree days 4871 5185  
Cooling Degree Days 0 0  
Month to date cooling degree days 0 0  
Year to date cooling degree days 0 0  
Moisture  
Dew Point 29 °F    
Average Humidity 82    
Maximum Humidity 100    
Minimum Humidity 64    
Precipitation  
Precipitation 0.00 in 0.11 in 1.15 in (1979)
Month to date precipitation 2.97 2.42  
Year to date precipitation 4.52 5.12  
Snow  
Snow 0.00 in 0.40 in 10.60 in (1934)
Month to date snowfall 41.6 11.5  
Since 1 July snowfall 65.2 46.7  
Snow Depth 17.00 in    
Sea Level Pressure  
Sea Level Pressure 30.28 in    
Wind  
Wind Speed 2 mph (ESE)    
Max Wind Speed 9 mph    
Max Gust Speed 22 mph    
Visibility 5 miles    
Events Fog    
T = Trace of Precipitation, MM = Missing Value Source: NWS Daily Summary

Daily Weather History Graph

Daily Weather History Graph

Search for Another Location

Airport or City:

Trip Planner

Search our weather history database for the weather conditions in past years. The results will help you decide how hot, cold, wet, or windy it might be!

Date:

Astronomy

Feb. 26, 2013 Rise Set
Actual Time 6:26 AM EST 5:31 PM EST
Civil Twilight 5:58 AM EST 6:00 PM EST
Nautical Twilight 5:25 AM EST 6:33 PM EST
Astronomical Twilight 4:52 AM EST 7:06 PM EST
Moon 6:48 PM EST (2/26) 6:25 AM EST (2/26)
Length of Visible Light 12h 02m
Length of Day
11h 04m
Full, 99% of the Moon is Illuminated
Feb 26
Full
Mar 4
Last Quarter
Mar 11
New
Mar 19
First Quarter
Mar 27
Full

Hourly Weather History & Observations

Time (EST) Temp. Windchill Dew Point Humidity Pressure Visibility Wind Dir Wind Speed Gust Speed Precip Events Conditions
12:03 AM 28.4 °F - 28.4 °F 100% 30.22 in 0.5 mi Calm Calm - N/A Fog Light Freezing Fog
12:51 AM 30.0 °F - 28.9 °F 96% 30.25 in 0.5 mi Calm Calm - N/A Fog Light Freezing Fog
1:11 AM 30.2 °F - 28.4 °F 93% 30.24 in 1.0 mi Calm Calm - N/A   Overcast
1:21 AM 28.4 °F - 28.4 °F 100% 30.24 in 0.5 mi Calm Calm - N/A Fog Light Freezing Fog
1:32 AM 30.2 °F - 28.4 °F 93% 30.24 in 0.2 mi Calm Calm - N/A Fog Light Freezing Fog
1:51 AM 28.0 °F - 28.0 °F 100% 30.25 in 0.2 mi Calm Calm - N/A Fog Light Freezing Fog
2:12 AM 28.4 °F - 28.4 °F 100% 30.23 in 0.5 mi Calm Calm - N/A Fog Light Freezing Fog
2:34 AM 30.2 °F - 28.4 °F 93% 30.23 in 1.5 mi Calm Calm - N/A   Overcast
2:51 AM 28.9 °F - 28.9 °F 100% 30.25 in 1.5 mi Calm Calm - N/A   Overcast
3:16 AM 30.2 °F - 28.4 °F 93% 30.26 in 2.5 mi Calm Calm - N/A   Overcast
3:27 AM 28.4 °F - 28.4 °F 100% 30.27 in 1.2 mi Calm Calm - N/A   Overcast
3:51 AM 30.0 °F - 28.9 °F 96% 30.28 in 1.8 mi Calm Calm - N/A   Overcast
4:15 AM 28.4 °F - 28.4 °F 100% 30.27 in 0.8 mi Calm Calm - N/A   Overcast
4:47 AM 30.2 °F - 28.4 °F 93% 30.27 in 0.2 mi Calm Calm - N/A Fog Light Freezing Fog
4:51 AM 28.9 °F - 28.9 °F 100% 30.29 in 0.2 mi Calm Calm - N/A Fog Light Freezing Fog
5:11 AM 28.4 °F - 28.4 °F 100% 30.28 in 0.5 mi Calm Calm - N/A Fog Light Freezing Fog
5:51 AM 28.9 °F - 28.9 °F 100% 30.30 in 1.0 mi Calm Calm - N/A   Overcast
6:17 AM 28.4 °F - 28.4 °F 100% 30.29 in 0.5 mi Calm Calm - N/A Fog Light Freezing Fog
6:24 AM 28.4 °F - 28.4 °F 100% 30.30 in 0.2 mi Calm Calm - N/A Fog Light Freezing Fog
6:51 AM 28.9 °F - 28.9 °F 100% 30.32 in 0.2 mi Calm Calm - N/A Fog Light Freezing Fog
7:51 AM 28.9 °F - 28.9 °F 100% 30.33 in 0.2 mi Calm Calm - N/A Fog Light Freezing Fog
8:05 AM 30.2 °F - 30.2 °F 100% 30.32 in 1.0 mi Calm Calm - N/A   Overcast
8:12 AM 30.2 °F - 30.2 °F 100% 30.32 in 2.0 mi Calm Calm - N/A   Overcast
8:30 AM 30.2 °F - 30.2 °F 100% 30.33 in 3.0 mi Calm Calm - N/A   Overcast
8:51 AM 30.9 °F - 30.9 °F 100% 30.34 in 3.0 mi Calm Calm - N/A   Overcast
9:51 AM 34.0 °F - 32.0 °F 92% 30.35 in 8.0 mi Calm Calm - N/A   Overcast
10:51 AM 37.9 °F 33.5 °F 30.9 °F 76% 30.33 in 10.0 mi East 5.8 mph - N/A   Overcast
11:38 AM 37.4 °F 31.4 °F 28.4 °F 70% 30.32 in 10.0 mi SE 8.1 mph - N/A   Scattered Clouds
11:51 AM 37.9 °F 34.4 °F 28.9 °F 70% 30.32 in 10.0 mi SE 4.6 mph - N/A   Mostly Cloudy
12:51 PM 39.0 °F 32.8 °F 28.9 °F 67% 30.32 in 10.0 mi SE 9.2 mph - N/A   Overcast
1:44 PM 37.4 °F 33.8 °F 30.2 °F 75% 30.31 in 10.0 mi East 4.6 mph - N/A   Overcast
1:51 PM 37.9 °F 35.5 °F 30.0 °F 73% 30.32 in 10.0 mi East 3.5 mph - N/A   Overcast
2:51 PM 37.9 °F 32.1 °F 30.9 °F 76% 30.30 in 10.0 mi ESE 8.1 mph - N/A   Overcast
3:51 PM 36.0 °F 29.6 °F 30.9 °F 82% 30.28 in 10.0 mi East 8.1 mph - N/A   Overcast
4:51 PM 36.0 °F 33.3 °F 30.0 °F 79% 30.29 in 10.0 mi ESE 3.5 mph - N/A   Overcast
5:51 PM 36.0 °F 32.1 °F 28.9 °F 76% 30.28 in 10.0 mi ESE 4.6 mph - N/A   Overcast
6:51 PM 35.1 °F 32.2 °F 28.0 °F 76% 30.28 in 10.0 mi ESE 3.5 mph - N/A   Overcast
7:51 PM 34.0 °F - 27.0 °F 75% 30.29 in 10.0 mi Calm Calm - N/A   Mostly Cloudy
8:51 PM 32.0 °F 28.7 °F 28.0 °F 85% 30.28 in 10.0 mi East 3.5 mph - N/A   Clear
9:51 PM 32.0 °F - 28.0 °F 85% 30.26 in 10.0 mi Calm Calm - N/A   Clear
10:51 PM 32.0 °F - 28.0 °F 85% 30.22 in 10.0 mi Calm Calm - N/A   Clear
11:51 PM 33.1 °F 30.0 °F 27.0 °F 78% 30.20 in 10.0 mi NE 3.5 mph - N/A   Clear